GMT,Max TemperatureF,Mean TemperatureF,Min TemperatureF,Max Dew PointF,MeanDew PointF,Min DewpointF,Max Humidity, Mean Humidity, Min Humidity, Max Sea Level PressureIn, Mean Sea Level PressureIn, Min Sea Level PressureIn, Max VisibilityMiles, Mean VisibilityMiles, Min VisibilityMiles, Max Wind SpeedMPH, Mean Wind SpeedMPH, Max Gust SpeedMPH,PrecipitationIn, CloudCover, Events, WindDirDegrees
2013-10-1,59,54,48,48,46,45,87,76,59,29.92,29.87,29.83,6,6,6,18,10,,0.00,5,Rain,82
2013-10-2,59,57,55,55,51,46,100,83,72,29.86,29.80,29.77,6,6,3,15,11,,0.00,5,Rain,95
2013-10-3,68,62,55,61,57,55,100,90,73,29.77,29.67,29.53,6,5,2,12,7,,0.00,3,Rain,74
2013-10-4,62,58,51,59,56,50,100,93,77,29.80,29.63,29.53,6,6,2,13,5,,0.00,5,Rain,271
2013-10-5,60,56,51,54,51,48,94,85,67,30.06,29.99,29.83,6,6,6,16,9,,0.00,5,,243
2013-10-6,62,58,55,59,55,52,94,86,72,30.09,30.06,30.01,6,6,6,18,12,,0.00,5,Rain,234
2013-10-7,68,64,59,59,57,55,94,83,68,30.06,30.03,29.98,6,6,5,22,13,,0.00,3,Rain,230
2013-10-8,60,55,50,59,52,46,94,86,72,30.15,30.07,29.98,6,6,4,23,13,,0.00,5,Rain,246
2013-10-9,51,48,44,46,40,32,93,71,50,30.12,30.02,29.92,6,6,6,21,12,30,0.00,2,Rain,274
2013-10-10,51,46,42,37,35,32,76,65,54,30.42,30.30,30.15,6,6,6,14,8,,0.00,3,,352
2013-10-11,51,48,46,43,40,36,82,73,66,30.51,30.47,30.42,6,6,6,14,10,,0.00,6,,38
2013-10-12,53,50,48,48,46,43,88,84,77,30.48,30.38,30.27,6,6,6,17,12,,0.00,6,Rain,47
2013-10-13,55,52,48,52,47,43,100,88,76,30.27,30.11,30.04,6,6,4,16,11,,0.00,6,Rain,42
2013-10-14,53,52,50,52,49,46,100,90,77,30.04,29.98,29.92,6,6,4,14,10,,0.00,5,Rain,52
2013-10-15,51,45,37,48,47,37,100,92,87,30.01,29.94,29.89,6,6,1,13,7,,0.00,6,Fog-Rain,37
2013-10-16,51,42,32,50,44,32,100,94,82,29.98,29.77,29.56,6,6,0,15,5,,0.00,5,Fog-Rain,60
2013-10-17,50,47,44,50,48,45,100,99,93,29.98,29.80,29.62,6,4,1,10,4,,0.00,7,Fog-Rain,57
2013-10-18,53,50,46,52,48,45,100,92,82,30.01,29.91,29.71,6,6,5,13,8,,0.00,6,Rain,78
2013-10-19,57,52,48,55,52,46,100,94,88,29.68,29.51,29.44,6,5,2,9,7,,0.00,5,Rain,72
2013-10-20,59,50,41,54,49,41,100,92,72,29.47,29.44,29.42,6,6,0,9,3,,0.00,3,Fog-Rain,111
2013-10-21,57,52,48,54,50,46,100,92,77,29.50,29.43,29.27,6,6,3,14,6,,0.00,5,Rain,95
2013-10-22,60,56,53,59,54,52,100,86,77,29.27,29.16,29.09,6,6,3,14,7,,0.00,3,Rain,202
2013-10-23,57,50,44,54,47,39,100,84,66,29.53,29.19,28.97,6,6,6,24,10,37,0.00,3,Rain,238
2013-10-24,55,50,44,46,43,41,93,83,67,29.89,29.79,29.56,6,6,6,18,12,,0.00,3,,245
2013-10-25,60,53,46,55,50,43,100,88,72,29.83,29.49,29.30,6,6,4,17,10,29,0.00,5,Rain,120
2013-10-26,55,50,44,52,47,41,94,85,67,29.44,29.31,29.15,6,6,6,20,12,,0.00,5,Rain,227
2013-10-27,53,48,44,48,45,43,93,84,72,29.15,28.95,28.82,6,6,4,26,13,38,0.00,4,Rain,221
2013-10-28,53,48,42,46,44,41,93,87,72,29.33,29.02,28.88,6,6,6,21,14,,0.00,2,Rain,241
2013-10-29,51,46,41,43,40,37,93,82,66,29.86,29.60,29.33,6,6,6,22,13,29,0.00,1,,248
2013-10-30,53,46,39,50,43,37,100,86,71,29.89,29.79,29.59,6,6,5,20,11,30,0.00,3,Rain,227
2013-10-31,53,48,42,45,42,39,93,83,67,29.80,29.67,29.59,6,6,5,26,13,39,0.00,3,Rain,225